Weather History for Lakeville, MN

Change the Weather History Date:

Monday, July 29, 2013

  Actual Average Record
Temperature  
Mean Temperature 60 °F -  
Max Temperature 75 °F 81 °F 96 °F (1975)
Min Temperature 46 °F 58 °F 43 °F (1971)
Degree Days  
Heating Degree Days 4    
Growing Degree Days 10 (Base 50)    
Moisture  
Dew Point 53 °F    
Average Humidity 75    
Maximum Humidity 100    
Minimum Humidity 47    
Precipitation  
Precipitation 0.00 in - - ()
Sea Level Pressure  
Sea Level Pressure 30.10 in    
Wind  
Wind Speed 2 mph (SSE)    
Max Wind Speed 10 mph    
Max Gust Speed -    
Visibility 10 miles    
Events      
Averages and records for this station are not official NWS values.
T = Trace of Precipitation, MM = Missing Value Source: NWS Daily Summary

Daily Weather History Graph

Daily Weather History Graph

Search for Another Location

Airport:

Trip Planner

Search our weather history database for the weather conditions in past years. The results will help you decide how hot, cold, wet, or windy it might be!

Date:

Astronomy

Jul. 29, 2013 Rise Set
Actual Time 5:56 AM CDT 8:41 PM CDT
Civil Twilight 5:22 AM CDT 9:15 PM CDT
Nautical Twilight 4:39 AM CDT 9:57 PM CDT
Astronomical Twilight 3:49 AM CDT 10:47 PM CDT
Moon No Moon Rise 2:00 PM CDT (7/29)
Length of Visible Light 15h 52m
Length of Day
14h 45m
Waning Gibbous, 50% of the Moon is Illuminated
Jul 29
Waning Gibbous
Jul 29
Last Quarter
Aug 6
New
Aug 14
First Quarter
Aug 20
Full

Hourly Weather History & Observations

Time (CDT) Temp. Dew Point Humidity Pressure Visibility Wind Dir Wind Speed Gust Speed Precip Events Conditions
12:09 AM 51.8 °F 51.8 °F 100% 30.08 in 10.0 mi Calm Calm - N/A   Clear
12:29 AM 51.8 °F 50.0 °F 94% 30.09 in 10.0 mi Calm Calm - N/A   Clear
12:50 AM 50.0 °F 48.2 °F 94% 30.08 in 10.0 mi Calm Calm - N/A   Clear
1:09 AM 50.0 °F 48.2 °F 94% 30.08 in 10.0 mi Calm Calm - N/A   Clear
1:30 AM 50.0 °F 50.0 °F 100% 30.08 in 10.0 mi Calm Calm - N/A   Clear
1:49 AM 51.8 °F 50.0 °F 94% 30.08 in 10.0 mi SW 3.5 mph - N/A   Clear
2:09 AM 50.0 °F 50.0 °F 100% 30.08 in 10.0 mi Calm Calm - N/A   Clear
2:30 AM 48.2 °F 48.2 °F 100% 30.08 in 10.0 mi Calm Calm - N/A   Clear
2:49 AM 48.2 °F 48.2 °F 100% 30.08 in 10.0 mi Calm Calm - N/A   Clear
3:09 AM 48.2 °F 48.2 °F 100% 30.08 in 10.0 mi Calm Calm - N/A   Clear
3:30 AM 46.4 °F 46.4 °F 100% 30.09 in 10.0 mi Calm Calm - N/A   Clear
3:49 AM 46.4 °F 46.4 °F 100% 30.09 in 10.0 mi Calm Calm - N/A   Clear
4:09 AM 46.4 °F 46.4 °F 100% 30.08 in 10.0 mi Calm Calm - N/A   Clear
4:30 AM 46.4 °F 46.4 °F 100% 30.08 in 10.0 mi Calm Calm - N/A   Clear
4:49 AM 48.2 °F 46.4 °F 93% 30.09 in 10.0 mi Calm Calm - N/A   Clear
5:09 AM 46.4 °F 46.4 °F 100% 30.09 in 10.0 mi Calm Calm - N/A   Clear
5:30 AM 46.4 °F 46.4 °F 100% 30.10 in 10.0 mi Calm Calm - N/A   Clear
5:49 AM 46.4 °F 46.4 °F 100% 30.10 in 7.0 mi Calm Calm - N/A   Clear
6:09 AM 46.4 °F 46.4 °F 100% 30.10 in 7.0 mi Calm Calm - N/A   Clear
6:30 AM 46.4 °F 46.4 °F 100% 30.10 in 10.0 mi Calm Calm - N/A   Clear
6:49 AM 50.0 °F 50.0 °F 100% 30.11 in 7.0 mi Calm Calm - N/A   Clear
7:09 AM 50.0 °F 50.0 °F 100% 30.11 in 10.0 mi Calm Calm - N/A   Clear
7:29 AM 53.6 °F 51.8 °F 94% 30.11 in 10.0 mi Calm Calm - N/A   Clear
7:49 AM 53.6 °F 53.6 °F 100% 30.12 in 10.0 mi Calm Calm - N/A   Clear
8:10 AM 55.4 °F 53.6 °F 94% 30.12 in 10.0 mi Calm Calm - N/A   Clear
8:29 AM 57.2 °F 53.6 °F 88% 30.13 in 10.0 mi Calm Calm - N/A   Clear
8:49 AM 59.0 °F 55.4 °F 88% 30.14 in 10.0 mi Calm Calm - N/A   Clear
9:09 AM 62.6 °F 55.4 °F 77% 30.14 in 10.0 mi SSE 5.8 mph - N/A   Clear
9:29 AM 64.4 °F 55.4 °F 73% 30.14 in 10.0 mi SSE 5.8 mph - N/A   Clear
9:50 AM 66.2 °F 55.4 °F 68% 30.14 in 10.0 mi SE 5.8 mph - N/A   Clear
10:09 AM 68.0 °F 57.2 °F 68% 30.14 in 10.0 mi SE 4.6 mph - N/A   Clear
10:29 AM 66.2 °F 57.2 °F 73% 30.14 in 10.0 mi SSE 5.8 mph - N/A   Clear
10:50 AM 68.0 °F 55.4 °F 64% 30.14 in 10.0 mi SSE 4.6 mph - N/A   Clear
11:09 AM 68.0 °F 55.4 °F 64% 30.14 in 10.0 mi SE 5.8 mph - N/A   Clear
11:29 AM 69.8 °F 55.4 °F 60% 30.14 in 10.0 mi Calm Calm - N/A   Clear
11:50 AM 69.8 °F 55.4 °F 60% 30.13 in 10.0 mi South 5.8 mph - N/A   Scattered Clouds
12:09 PM 69.8 °F 53.6 °F 56% 30.13 in 10.0 mi South 5.8 mph - N/A   Scattered Clouds
12:30 PM 71.6 °F 53.6 °F 53% 30.12 in 10.0 mi Calm Calm - N/A   Scattered Clouds
12:50 PM 71.6 °F 53.6 °F 53% 30.12 in 10.0 mi SSE 5.8 mph - N/A   Scattered Clouds
1:09 PM 73.4 °F 53.6 °F 50% 30.11 in 10.0 mi SSE 4.6 mph - N/A   Scattered Clouds
1:30 PM 73.4 °F 53.6 °F 50% 30.11 in 10.0 mi SSE 6.9 mph - N/A   Scattered Clouds
1:49 PM 73.4 °F 55.4 °F 53% 30.10 in 10.0 mi Calm Calm - N/A   Scattered Clouds
2:09 PM 73.4 °F 53.6 °F 50% 30.10 in 10.0 mi SW 5.8 mph - N/A   Scattered Clouds
2:30 PM 73.4 °F 53.6 °F 50% 30.10 in 10.0 mi SSE 3.5 mph - N/A   Scattered Clouds
2:49 PM 73.4 °F 53.6 °F 50% 30.10 in 10.0 mi South 4.6 mph - N/A   Scattered Clouds
3:09 PM 73.4 °F 53.6 °F 50% 30.10 in 10.0 mi South 6.9 mph - N/A   Scattered Clouds
3:30 PM 73.4 °F 53.6 °F 50% 30.10 in 10.0 mi South 5.8 mph - N/A   Scattered Clouds
3:49 PM 71.6 °F 53.6 °F 53% 30.10 in 10.0 mi SSE 5.8 mph - N/A   Scattered Clouds
4:09 PM 75.2 °F 53.6 °F 47% 30.10 in 10.0 mi SSE 9.2 mph - N/A   Scattered Clouds
4:30 PM 75.2 °F 53.6 °F 47% 30.10 in 10.0 mi South 5.8 mph - N/A   Scattered Clouds
4:49 PM 75.2 °F 53.6 °F 47% 30.09 in 10.0 mi SSE 10.4 mph - N/A   Scattered Clouds
5:09 PM 73.4 °F 53.6 °F 50% 30.09 in 10.0 mi SSE 6.9 mph - N/A   Scattered Clouds
5:30 PM 71.6 °F 53.6 °F 53% 30.09 in 10.0 mi South 5.8 mph - N/A   Clear
5:49 PM 71.6 °F 53.6 °F 53% 30.09 in 10.0 mi South 3.5 mph - N/A   Clear
6:10 PM 73.4 °F 53.6 °F 50% 30.09 in 10.0 mi South 4.6 mph - N/A   Scattered Clouds
6:30 PM 71.6 °F 53.6 °F 53% 30.09 in 10.0 mi SSE 3.5 mph - N/A   Scattered Clouds
6:49 PM 71.6 °F 55.4 °F 57% 30.09 in 10.0 mi South 3.5 mph - N/A   Clear
7:10 PM 71.6 °F 55.4 °F 57% 30.09 in 10.0 mi Calm Calm - N/A   Clear
7:29 PM 69.8 °F 57.2 °F 64% 30.09 in 10.0 mi Calm Calm - N/A   Clear
7:49 PM 68.0 °F 57.2 °F 68% 30.09 in 5.0 mi Calm Calm - N/A   Haze
8:10 PM 68.0 °F 57.2 °F 68% 30.09 in 7.0 mi Calm Calm - N/A   Scattered Clouds
8:29 PM 66.2 °F 57.2 °F 73% 30.09 in 10.0 mi Calm Calm - N/A   Clear
8:49 PM 66.2 °F 57.2 °F 73% 30.09 in 10.0 mi ESE 3.5 mph - N/A   Clear
9:10 PM 64.4 °F 57.2 °F 77% 30.09 in 10.0 mi Calm Calm - N/A   Clear
9:29 PM 64.4 °F 57.2 °F 77% 30.09 in 10.0 mi SE 3.5 mph - N/A   Scattered Clouds
9:49 PM 64.4 °F 57.2 °F 77% 30.10 in 10.0 mi SSE 3.5 mph - N/A   Mostly Cloudy
10:09 PM 64.4 °F 57.2 °F 77% 30.10 in 10.0 mi SSE 3.5 mph - N/A   Mostly Cloudy
10:29 PM 62.6 °F 57.2 °F 82% 30.10 in 10.0 mi Calm Calm - N/A   Scattered Clouds
10:50 PM 62.6 °F 57.2 °F 82% 30.10 in 10.0 mi Calm Calm - N/A   Scattered Clouds
11:09 PM 62.6 °F 57.2 °F 82% 30.10 in 10.0 mi SE 3.5 mph - N/A   Overcast
11:29 PM 62.6 °F 57.2 °F 82% 30.10 in 10.0 mi Calm Calm - N/A   Overcast
11:50 PM 62.6 °F 57.2 °F 82% 30.11 in 10.0 mi Calm Calm - N/A   Overcast